Location: Chippewa Lake
(41.0698°N, 81.9010°W)
Time: 01:04:23
(UTC+00:00)

NOSS 3-4 (C) - Pass Details

Date: 09 May 2021
Orbit: 873 x 1339 km, 63.4° (Epoch: 06 May)

Event Time Altitude Azimuth Distance (km) Brightness Sun altitude
Rises 04:47:28 0° 321° (NW) 3,884 7.5 -30.9°
Reaches altitude 10° 04:50:03 10° 317° (NW) 2,990 6.7 -31.0°
Enters shadow 04:56:50 55° 248° (WSW) 1,420 4.1 -31.2°
